This is the latest recevied weather packets stored in our database for station/object NT9G. If no packets are shown the sender has not sent any weather packets the latest 10 day(s).
| Time | Temp. | Humidity | Pressure | Rain* | Wind** | Luminosity | Snow |
|---|---|---|---|---|---|---|---|
| 1777229279 | 25° C | 36% | 1014.9 hPa | 0 mm | - | - | - |
| 1777228978 | 25° C | 35% | 1014.9 hPa | 0 mm | - | - | - |
| 1777228678 | 25.56° C | 37% | 1015 hPa | 0 mm | - | - | - |
| 1777228378 | 25° C | 37% | 1015.1 hPa | 0 mm | - | - | - |
| 1777228077 | 25° C | 35% | 1015.2 hPa | 0 mm | - | - | - |
| 1777227777 | 25° C | 38% | 1015.1 hPa | 0 mm | - | - | - |
| 1777227477 | 24.44° C | 40% | 1015.2 hPa | 0 mm | - | - | - |
| 1777227177 | 25° C | 39% | 1015.3 hPa | 0 mm | - | - | - |
| 1777226876 | 24.44° C | 37% | 1015.2 hPa | 0 mm | - | - | - |
| 1777226576 | 25° C | 39% | 1015.3 hPa | 0 mm | - | - | - |
| 1777226276 | 25° C | 40% | 1015.5 hPa | 0 mm | - | - | - |
| 1777225975 | 24.44° C | 41% | 1015.6 hPa | 0 mm | - | - | - |
| 1777225675 | 23.89° C | 42% | 1015.8 hPa | 0 mm | - | - | - |
| 1777225375 | 23.33° C | 40% | 1015.8 hPa | 0 mm | - | - | - |
| 1777225075 | 22.78° C | 44% | 1015.9 hPa | 0 mm | - | - | - |
| 1777224774 | 22.22° C | 44% | 1016 hPa | 0 mm | - | - | - |
| 1777224474 | 22.22° C | 45% | 1016.3 hPa | 0 mm | - | - | - |
| 1777224174 | 22.78° C | 41% | 1016.3 hPa | 0 mm | - | - | - |
| 1777223573 | 22.78° C | 44% | 1016.5 hPa | 0 mm | - | - | - |
| 1777223273 | 22.78° C | 43% | 1016.6 hPa | 0 mm | - | - | - |
| 1777222972 | 22.22° C | 46% | 1016.7 hPa | 0 mm | - | - | - |
| 1777222672 | 22.22° C | 46% | 1016.8 hPa | 0 mm | - | - | - |
| 1777222372 | 21.67° C | 47% | 1016.8 hPa | 0 mm | - | - | - |
| 1777222072 | 21.11° C | 47% | 1016.9 hPa | 0 mm | - | - | - |
| 1777221771 | 21.11° C | 49% | 1016.9 hPa | 0 mm | - | - | - |
* Rain since midnight (hover to see other rain measurements)
** Current wind speed in m/s (hover to see current wind gust speed)